Location: *
(50.9167°S, 179.4000°W)
Time: 20:53:21
(UTC+00:00)

GEOS 3 Rocket - Pass Details

Date: 03 March 2024
Orbit: 778 x 838 km, 115.0° (Epoch: 16 April)

Event Time Altitude Azimuth Distance (km) Brightness Sun altitude
Rises 12:42:59 0° 138° (SE) 3,325 7.6 -32.1°
Reaches altitude 10° 12:45:16 10° 139° (SE) 2,398 6.7 -32.1°
Enters shadow 12:49:10 52° 149° (SSE) 1,008 4.3 -31.9°
